Weather History for Willmar, MN

Change the Weather History Date:

Thursday, June 6, 2013

  Actual Average (KLJF) Record (KLJF)
Temperature  
Mean Temperature 58 °F -  
Max Temperature 62 °F 79 °F 97 °F (1987)
Min Temperature 53 °F 54 °F 33 °F (2008)
Degree Days  
Heating Degree Days 8    
Growing Degree Days 8 (Base 50)    
Moisture  
Dew Point 49 °F    
Average Humidity 74    
Maximum Humidity 88    
Minimum Humidity 59    
Precipitation  
Precipitation 0.00 in - - ()
Sea Level Pressure  
Sea Level Pressure 30.04 in    
Wind  
Wind Speed 8 mph (NNE)    
Max Wind Speed 12 mph    
Max Gust Speed -    
Visibility 10 miles    
Events      
Averages and records for this station are not official NWS values.
T = Trace of Precipitation, MM = Missing Value Source: NWS Daily Summary

Daily Weather History Graph

Daily Weather History Graph

Search for Another Location

Airport:

Trip Planner

Search our weather history database for the weather conditions in past years. The results will help you decide how hot, cold, wet, or windy it might be!

Date:

Astronomy

Jun. 06, 2013 Rise Set
Actual Time 5:34 AM CDT 9:04 PM CDT
Civil Twilight 4:57 AM CDT 9:41 PM CDT
Nautical Twilight 4:08 AM CDT 10:30 PM CDT
Astronomical Twilight 3:05 AM CDT 11:34 PM CDT
Moon 4:21 AM CDT (6/6) 7:23 PM CDT (6/6)
Length of Visible Light 16h 44m
Length of Day
15h 30m
Waning Crescent, 3% of the Moon is Illuminated
Jun 6
Waning Crescent
Jun 8
New
Jun 16
First Quarter
Jun 23
Full
Jun 29
Last Quarter

Hourly Weather History & Observations

Time (CDT) Temp. Dew Point Humidity Pressure Visibility Wind Dir Wind Speed Gust Speed Precip Events Conditions
12:15 AM 55.4 °F 51.8 °F 88% 30.01 in 10.0 mi NE 9.2 mph - N/A   Clear
12:35 AM 55.4 °F 51.8 °F 88% 30.02 in 10.0 mi NE 8.1 mph - N/A   Mostly Cloudy
12:56 AM 57.2 °F 51.8 °F 82% 30.01 in 10.0 mi NNE 9.2 mph - N/A   Overcast
1:15 AM 57.2 °F 50.0 °F 77% 30.02 in 10.0 mi NE 10.4 mph - N/A   Overcast
1:35 AM 57.2 °F 50.0 °F 77% 30.01 in 10.0 mi NNE 9.2 mph - N/A   Overcast
1:56 AM 55.4 °F 50.0 °F 82% 30.02 in 10.0 mi NNE 6.9 mph - N/A   Overcast
2:15 AM 55.4 °F 50.0 °F 82% 30.02 in 10.0 mi NNE 6.9 mph - N/A   Overcast
2:27 AM 55.4 °F 50.0 °F 82% 30.02 in 10.0 mi NNE 10.4 mph - N/A   Overcast
2:56 AM 53.6 °F 48.2 °F 82% 30.02 in 10.0 mi NNE 10.4 mph - N/A   Overcast
3:15 AM 53.6 °F 48.2 °F 82% 30.01 in 10.0 mi NNE 8.1 mph - N/A   Overcast
3:35 AM 53.6 °F 48.2 °F 82% 30.01 in 10.0 mi NNE 9.2 mph - N/A   Overcast
3:56 AM 53.6 °F 48.2 °F 82% 30.01 in 10.0 mi NE 5.8 mph - N/A   Overcast
4:15 AM 53.6 °F 48.2 °F 82% 30.01 in 10.0 mi NE 8.1 mph - N/A   Overcast
4:35 AM 53.6 °F 48.2 °F 82% 30.01 in 10.0 mi NNE 8.1 mph - N/A   Overcast
4:56 AM 53.6 °F 48.2 °F 82% 30.01 in 10.0 mi NNE 8.1 mph - N/A   Overcast
5:15 AM 53.6 °F 48.2 °F 82% 30.01 in 10.0 mi NNE 10.4 mph - N/A   Overcast
5:35 AM 53.6 °F 48.2 °F 82% 30.01 in 10.0 mi NNE 9.2 mph - N/A   Overcast
5:56 AM 53.6 °F 48.2 °F 82% 30.01 in 10.0 mi NNE 11.5 mph - N/A   Overcast
6:15 AM 53.6 °F 48.2 °F 82% 30.02 in 10.0 mi NNE 10.4 mph - N/A   Overcast
6:35 AM 53.6 °F 48.2 °F 82% 30.03 in 10.0 mi NNE 10.4 mph - N/A   Overcast
6:56 AM 53.6 °F 48.2 °F 82% 30.03 in 10.0 mi NNE 11.5 mph - N/A   Overcast
7:15 AM 53.6 °F 48.2 °F 82% 30.03 in 10.0 mi NNE 9.2 mph - N/A   Overcast
7:35 AM 53.6 °F 48.2 °F 82% 30.03 in 7.0 mi North 10.4 mph - N/A   Overcast
7:55 AM 53.6 °F 48.2 °F 82% 30.03 in 10.0 mi NNE 8.1 mph - N/A   Overcast
8:15 AM 53.6 °F 48.2 °F 82% 30.03 in 10.0 mi North 6.9 mph - N/A   Overcast
8:35 AM 53.6 °F 48.2 °F 82% 30.03 in 10.0 mi North 8.1 mph - N/A   Overcast
8:56 AM 55.4 °F 48.2 °F 77% 30.04 in 10.0 mi North 6.9 mph - N/A   Overcast
9:15 AM 55.4 °F 48.2 °F 77% 30.04 in 10.0 mi NE 6.9 mph - N/A   Overcast
9:35 AM 55.4 °F 48.2 °F 77% 30.04 in 10.0 mi NNE 5.8 mph - N/A   Overcast
9:55 AM 55.4 °F 48.2 °F 77% 30.05 in 10.0 mi NNE 8.1 mph - N/A   Overcast
10:15 AM 55.4 °F 48.2 °F 77% 30.04 in 10.0 mi NE 6.9 mph - N/A   Overcast
10:35 AM 57.2 °F 48.2 °F 72% 30.04 in 10.0 mi North 6.9 mph - N/A   Overcast
10:55 AM 57.2 °F 48.2 °F 72% 30.04 in 10.0 mi North 6.9 mph - N/A   Overcast
11:15 AM 57.2 °F 48.2 °F 72% 30.04 in 10.0 mi NNE 10.4 mph - N/A   Overcast
11:35 AM 57.2 °F 48.2 °F 72% 30.05 in 10.0 mi NNE 9.2 mph - N/A   Overcast
11:55 AM 57.2 °F 48.2 °F 72% 30.04 in 10.0 mi North 9.2 mph - N/A   Overcast
12:15 PM 57.2 °F 48.2 °F 72% 30.05 in 10.0 mi NNE 11.5 mph - N/A   Overcast
12:35 PM 59.0 °F 50.0 °F 72% 30.05 in 10.0 mi NNE 8.1 mph - N/A   Overcast
12:55 PM 59.0 °F 48.2 °F 67% 30.04 in 10.0 mi NNE 6.9 mph - N/A   Overcast
1:15 PM 59.0 °F 48.2 °F 67% 30.05 in 10.0 mi North 5.8 mph - N/A   Overcast
1:35 PM 59.0 °F 48.2 °F 67% 30.05 in 10.0 mi NE 10.4 mph - N/A   Overcast
1:55 PM 59.0 °F 48.2 °F 67% 30.05 in 10.0 mi ENE 10.4 mph - N/A   Overcast
2:15 PM 60.8 °F 50.0 °F 68% 30.04 in 10.0 mi NE 10.4 mph - N/A   Overcast
2:35 PM 60.8 °F 48.2 °F 63% 30.04 in 10.0 mi NE 10.4 mph - N/A   Mostly Cloudy
2:55 PM 60.8 °F 48.2 °F 63% 30.04 in 10.0 mi NE 6.9 mph - N/A   Mostly Cloudy
3:15 PM 62.6 °F 48.2 °F 59% 30.04 in 10.0 mi NNE 5.8 mph - N/A   Mostly Cloudy
3:35 PM 60.8 °F 48.2 °F 63% 30.03 in 10.0 mi ENE 8.1 mph - N/A   Overcast
3:55 PM 60.8 °F 48.2 °F 63% 30.03 in 10.0 mi NNE 8.1 mph - N/A   Overcast
4:15 PM 60.8 °F 48.2 °F 63% 30.04 in 10.0 mi NNE 8.1 mph - N/A   Overcast
4:35 PM 60.8 °F 48.2 °F 63% 30.04 in 10.0 mi NE 5.8 mph - N/A   Overcast
4:55 PM 60.8 °F 48.2 °F 63% 30.04 in 10.0 mi NNE 9.2 mph - N/A   Overcast
5:15 PM 60.8 °F 48.2 °F 63% 30.04 in 10.0 mi NNE 8.1 mph - N/A   Overcast
5:35 PM 60.8 °F 48.2 °F 63% 30.05 in 10.0 mi NE 10.4 mph - N/A   Overcast
5:55 PM 60.8 °F 50.0 °F 68% 30.05 in 10.0 mi NNE 5.8 mph - N/A   Overcast
6:15 PM 60.8 °F 48.2 °F 63% 30.04 in 10.0 mi NNE 8.1 mph - N/A   Overcast
6:35 PM 60.8 °F 48.2 °F 63% 30.05 in 10.0 mi NNE 9.2 mph - N/A   Overcast
6:55 PM 60.8 °F 48.2 °F 63% 30.05 in 10.0 mi NNE 6.9 mph - N/A   Overcast
7:15 PM 60.8 °F 48.2 °F 63% 30.05 in 10.0 mi NE 8.1 mph - N/A   Overcast
7:35 PM 59.0 °F 48.2 °F 67% 30.05 in 10.0 mi NE 6.9 mph - N/A   Overcast
7:55 PM 59.0 °F 48.2 °F 67% 30.05 in 10.0 mi NE 9.2 mph - N/A   Overcast
8:15 PM 59.0 °F 48.2 °F 67% 30.05 in 10.0 mi NE 6.9 mph - N/A   Overcast
8:35 PM 57.2 °F 48.2 °F 72% 30.06 in 10.0 mi NE 5.8 mph - N/A   Overcast
8:55 PM 57.2 °F 48.2 °F 72% 30.06 in 10.0 mi NE 8.1 mph - N/A   Overcast
9:15 PM 57.2 °F 48.2 °F 72% 30.06 in 10.0 mi NE 5.8 mph - N/A   Overcast
9:35 PM 57.2 °F 48.2 °F 72% 30.06 in 10.0 mi NE 6.9 mph - N/A   Overcast
9:55 PM 57.2 °F 48.2 °F 72% 30.07 in 10.0 mi NE 4.6 mph - N/A   Overcast
10:15 PM 57.2 °F 48.2 °F 72% 30.07 in 10.0 mi NE 3.5 mph - N/A   Overcast
10:35 PM 57.2 °F 50.0 °F 77% 30.07 in 10.0 mi NNE 3.5 mph - N/A   Overcast
10:55 PM 57.2 °F 48.2 °F 72% 30.07 in 10.0 mi NNE 4.6 mph - N/A   Overcast
11:15 PM 57.2 °F 48.2 °F 72% 30.07 in 10.0 mi NNE 4.6 mph - N/A   Overcast
11:35 PM 55.4 °F 48.2 °F 77% 30.07 in 10.0 mi NE 5.8 mph - N/A   Overcast
11:55 PM 55.4 °F 48.2 °F 77% 30.06 in 10.0 mi NNE 6.9 mph - N/A   Overcast